Ahmedabad, India

3:02 PM IST on June 26, 2017 (GMT +0530)
Ahmedabad

Weather History for VAAH - August, 2013

Change the Weather History Date:

Tuesday, August 13, 2013

  Actual Average Record
Temperature  
Mean Temperature 81 °F -  
Max Temperature 84 °F 87 °F 91 °F (2014)
Min Temperature 78 °F 76 °F 74 °F (2012)
Cooling Degree Days 16    
Growing Degree Days 31 (Base 50)    
Moisture  
Dew Point 79 °F    
Average Humidity 97    
Maximum Humidity 100    
Minimum Humidity 83    
Precipitation  
Precipitation 0.00 in 0.26 in - ()
Sea Level Pressure  
Sea Level Pressure 29.57 in    
Wind  
Wind Speed 5 mph ()    
Max Wind Speed 9 mph    
Max Gust Speed -    
Visibility 1.8 miles    
Events Rain    
Averages and records for this station are not official NWS values.
T = Trace of Precipitation, MM = Missing Value Source: Averaged Metar Reports

Daily Weather History Graph

Daily Weather History Graph

Search for Another Location

Airport or City:

Trip Planner

Search our weather history database for the weather conditions in past years. The results will help you decide how hot, cold, wet, or windy it might be!

Date:

Astronomy

Aug. 13, 2013 Rise Set
Actual Time 6:15 AM IST 7:13 PM IST
Civil Twilight 5:51 AM IST 7:36 PM IST
Nautical Twilight 5:23 AM IST 8:04 PM IST
Astronomical Twilight 4:55 AM IST 8:33 PM IST
Moon 11:49 AM IST (8/13) 11:21 PM IST (8/13)
Length of Visible Light 13h 45m
Length of Day
12h 58m
Waxing Crescent, 37% of the Moon is Illuminated
Aug 13
Waxing Crescent
Aug 14
First Quarter
Aug 21
Full
Aug 28
Last Quarter
Sep 5
New

Hourly Weather History & Observations

Time (IST) Temp. Heat Index Dew Point Humidity Pressure Visibility Wind Dir Wind Speed Gust Speed Precip Events Conditions
12:10 AM 78.8 °F - 78.8 °F 100% 29.62 in 1.6 mi SSW 3.5 mph - N/A Rain Rain
12:40 AM 78.8 °F - 78.8 °F 100% 29.62 in 1.6 mi SW 4.6 mph - N/A Rain Rain
1:10 AM 78.8 °F - 78.8 °F 100% 29.62 in 1.6 mi SW 4.6 mph - N/A Rain Light Rain
1:40 AM 78.8 °F - 78.8 °F 100% 29.59 in 1.6 mi WSW 9.2 mph - N/A Rain Light Rain
2:40 AM 80.6 °F 88.1 °F 78.8 °F 94% 29.59 in 1.9 mi West 9.2 mph - N/A Rain Light Rain
3:10 AM 78.8 °F - 78.8 °F 100% 29.59 in 1.9 mi SW 6.9 mph - N/A Rain Light Rain
3:40 AM 78.8 °F - 78.8 °F 100% 29.56 in 1.9 mi WSW 5.8 mph - N/A   Haze
4:10 AM 78.8 °F - 78.8 °F 100% 29.56 in 1.9 mi West 6.9 mph - N/A   Light Drizzle
4:40 AM 78.8 °F - 78.8 °F 100% 29.56 in 1.9 mi WSW 4.6 mph - N/A   Light Drizzle
5:10 AM 78.8 °F - 78.8 °F 100% 29.56 in 1.9 mi West 5.8 mph - N/A   Haze
5:40 AM 78.8 °F - 78.8 °F 100% 29.56 in 1.9 mi WSW 4.6 mph - N/A   Haze
6:40 AM 78.8 °F - 78.8 °F 100% 29.59 in 1.9 mi SW 5.8 mph - N/A   Haze
7:10 AM 78.8 °F - 78.8 °F 100% 29.59 in 1.9 mi SW 4.6 mph - N/A   Haze
7:40 AM 78.8 °F - 78.8 °F 100% 29.59 in 1.9 mi WSW 4.6 mph - N/A   Haze
8:10 AM 78.8 °F - 78.8 °F 100% 29.59 in 1.9 mi WSW 8.1 mph - N/A   Haze
8:30 AM 79 °F - 77 °F 92% 29.61 in 1 mi SW 3.5 mph - - Rain Light Rain
8:40 AM 78.8 °F - 78.8 °F 100% 29.59 in 1.9 mi WSW 4.6 mph - N/A   Light Drizzle
9:10 AM 78.8 °F - 78.8 °F 100% 29.62 in 1.9 mi WSW 4.6 mph - N/A   Light Drizzle
9:40 AM 78.8 °F - 78.8 °F 100% 29.62 in 1.9 mi SW 4.6 mph - N/A   Light Drizzle
10:10 AM 78.8 °F - 78.8 °F 100% 29.62 in 1.9 mi SW 4.6 mph - N/A   Light Drizzle
10:40 AM 78.8 °F - 78.8 °F 100% 29.62 in 1.9 mi WSW 5.8 mph - N/A   Light Drizzle
11:10 AM 80.6 °F 89.3 °F 80.6 °F 100% 29.59 in 1.9 mi WSW 8.1 mph - N/A   Light Drizzle
11:40 AM 80.6 °F 89.3 °F 80.6 °F 100% 29.59 in 1.9 mi WSW 6.9 mph - N/A   Light Drizzle
12:10 PM 80.6 °F 89.3 °F 80.6 °F 100% 29.59 in 1.9 mi WSW 3.5 mph - N/A   Light Drizzle
12:40 PM 80.6 °F 89.3 °F 80.6 °F 100% 29.59 in 1.9 mi SW 5.8 mph - N/A   Light Drizzle
1:10 PM 80.6 °F 89.3 °F 80.6 °F 100% 29.59 in 1.9 mi SW 4.6 mph - N/A   Light Drizzle
1:40 PM 82.4 °F 94.0 °F 80.6 °F 94% 29.56 in 1.9 mi SW 6.9 mph - N/A   Haze
2:10 PM 84.2 °F 98.3 °F 80.6 °F 89% 29.56 in 1.9 mi SW 8.1 mph - N/A   Haze
2:30 PM 84 °F - 80 °F 83% 29.55 in 1 mi SW 4.6 mph - -   Haze
2:40 PM 84.2 °F 98.3 °F 80.6 °F 89% 29.53 in 1.9 mi SW 8.1 mph - N/A   Haze
3:10 PM 84.2 °F 98.3 °F 80.6 °F 89% 29.53 in 1.9 mi WSW 5.8 mph - N/A   Haze
3:40 PM 84.2 °F 98.3 °F 80.6 °F 89% 29.53 in 1.9 mi West 4.6 mph - N/A   Haze
5:10 PM 82.4 °F 94.0 °F 80.6 °F 94% 29.50 in 1.9 mi West 6.9 mph - N/A   Haze
5:30 PM 81 °F - 78 °F 87% 29.52 in 1 mi SW 3.5 mph - -   Haze
5:40 PM 82.4 °F 94.0 °F 80.6 °F 94% 29.50 in 1.9 mi West 4.6 mph - N/A   Haze
6:10 PM 82.4 °F 92.4 °F 78.8 °F 89% 29.53 in 1.9 mi West 4.6 mph - N/A   Haze
6:40 PM 80.6 °F 88.1 °F 78.8 °F 94% 29.53 in 1.9 mi West 4.6 mph - N/A   Haze
7:10 PM 80.6 °F 88.1 °F 78.8 °F 94% 29.53 in 1.9 mi West 3.5 mph - N/A   Haze
7:40 PM 80.6 °F 88.1 °F 78.8 °F 94% 29.56 in 1.9 mi WNW 4.6 mph - N/A   Haze
8:10 PM 80.6 °F 88.1 °F 78.8 °F 94% 29.56 in 1.9 mi Calm Calm - N/A   Haze
8:30 PM 81 °F - 79 °F 90% 29.55 in 1 mi Calm Calm - -   Haze
8:40 PM 80.6 °F 89.3 °F 80.6 °F 100% 29.56 in 1.9 mi Calm Calm - N/A   Haze
9:10 PM 80.6 °F 89.3 °F 80.6 °F 100% 29.56 in 1.9 mi Calm Calm - N/A   Haze
9:40 PM 80.6 °F 89.3 °F 80.6 °F 100% 29.56 in 1.9 mi Variable 3.5 mph - N/A   Haze
10:10 PM 80.6 °F 89.3 °F 80.6 °F 100% 29.59 in 1.9 mi Variable 3.5 mph - N/A   Light Drizzle
10:40 PM 80.6 °F 88.1 °F 78.8 °F 94% 29.59 in 1.9 mi SW 6.9 mph - N/A   Light Drizzle
11:10 PM 80.6 °F 88.1 °F 78.8 °F 94% 29.59 in 1.9 mi SW 5.8 mph - N/A   Light Drizzle
11:30 PM 80 °F - 78 °F 93% 29.58 in 1 mi SW 6.9 mph - - Rain Light Drizzle
11:40 PM 78.8 °F - 78.8 °F 100% 29.59 in 1.9 mi SSW 5.8 mph - N/A   Light Drizzle